CAPE
1277 1253 1705 1730 2545 1545 664 619 419 359 676 485 448 780 919 1038 1363 968 708 847 920 876 1252 1949 2981 2884 2393 2478 2532 2300 2206 2178 2142 2153 2241 2423 2295 2083 2223 2087 1821 2050 2127 2108 2021 1849 1843 1977 2119
1461 1587 1698 2259 1986 454 689 378 453 476 576 447 1075 887 1318 1951 1330 685 654 927 936 920 1122 1486 2837 2887 2253 2274 2134 2021 2067 2108 2043 1964 1879 2162 2036 1856 2117 2266 1888 2136 2124 1978 1571 1649 1254 2118 2134
1888 1698 2898 2471 835 539 753 511 599 690 571 427 782 1117 1630 1912 1170 520 837 880 894 992 1104 1780 3027 2989 2269 2006 1823 1830 1825 1686 1762 1561 2126 2285 1980 1941 1938 2012 2054 2218 2180 2139 1552 1580 1420 2122 2121
1692 2516 2868 2451 666 1052 618 682 517 536 465 449 642 1681 1851 1782 1311 900 828 807 874 849 1407 2111 2958 2361 2213 2027 1914 1841 1914 1791 2042 1708 2000 2198 2306 2101 1833 2069 2115 1498 2253 1767 1261 1926 2194 2237 2188
2340 1830 1293 971 974 1015 694 788 818 550 397 503 765 1115 1710 1704 1374 704 823 762 707 1285 1944 1813 3078 2851 2375 2049 1905 1985 2512 2127 1512 1804 1995 2227 2051 2162 1815 2042 1953 1743 2058 1854 1264 2040 2052 2071 2062
3311 1102 1103 576 608 896 737 801 943 757 879 522 605 1263 1427 1681 952 686 748 711 682 1158 1188 1904 2642 2651 2346 2095 1878 2322 1830 1891 1795 1794 2120 2064 2218 2145 1847 2039 1952 1583 2309 2173 1943 1828 2117 1922 1916
1440 1543 653 556 449 866 989 811 910 894 802 907 454 1611 1230 1257 728 677 672 615 726 906 1437 1591 1665 1871 2321 2432 1754 2337 1950 1950 1737 1721 1980 2119 2104 2097 1689 1889 1805 1255 2270 2163 2069 1820 1638 1876 1990
812 1395 220 830 567 781 1032 789 917 840 742 847 789 1415 1290 944 654 591 604 599 693 901 1069 1284 1415 1523 1889 1797 2113 2417 1773 1929 2109 1687 1849 1992 2044 2065 1894 2023 1673 828 2263 2093 1942 1826 1675 2045 2108
265 535 550 537 716 566 741 748 1183 1038 1006 1169 880 1140 1161 883 579 556 624 631 678 748 912 952 1175 1456 1580 2091 2314 2127 1746 2086 1871 2263 1915 1944 1646 1881 1603 1567 1860 942 2200 1984 2115 1706 1590 1662 1644
270 415 306 409 523 606 529 631 878 973 927 1413 1402 1428 1148 896 659 563 709 721 713 860 831 1105 1338 1465 1387 1336 2440 2514 1796 1640 1545 1422 1566 2248 1740 1649 1392 1844 1973 1684 2007 1975 1515 1375 1513 1297 700
126 206 91 198 497 596 793 729 583 743 926 1384 1638 1659 1394 1238 862 643 698 739 721 758 880 1220 1191 1506 1066 2187 2211 1947 1071 839 2127 2491 1932 1479 1572 949 1103 1309 1672 1158 1631 1370 1294 1080 914 1033 306
89 39 13 34 70 562 798 833 783 766 888 909 1799 1786 1524 1521 1044 797 634 659 710 740 719 951 964 1015 811 2096 2100 1850 833 998 751 865 906 2209 820 511 1879 1365 1630 1734 895 1596 1290 1361 1425 376 730
1 0 21 131 14 586 875 854 803 662 1064 1188 1749 1896 1801 1448 1161 1036 737 616 633 731 800 760 962 1255 1174 1401 1350 1918 517 965 1191 990 1346 2049 2377 495 393 1292 1134 1024 943 952 1444 1169 936 969 292
0 0 71 245 390 666 624 844 929 1106 1219 1621 1511 1799 1817 1575 1290 1215 799 687 614 653 761 743 1091 1333 1333 1073 1248 1328 597 324 1536 873 1140 1729 1567 1158 1291 500 866 1273 1119 851 1039 1741 1705 839 828
0 2 20 235 296 417 401 179 789 1242 1398 1689 1514 1725 1788 1568 1343 1229 851 765 727 674 853 872 1132 1266 1344 1229 1260 1069 762 516 256 1249 1638 1526 2079 1929 1426 1881 1415 1024 1790 1050 1375 2118 755 241 43
0 0 56 55 10 0 7 473 948 1229 1294 1586 1530 1545 1701 1476 1398 1241 949 1017 1094 949 1295 1417 1260 1387 1418 1150 1242 952 734 648 269 509 1169 1164 2371 1877 2480 2409 1316 869 614 1411 1546 821 331 75 57
5 14 12 13 0 0 0 0 172 999 1427 1600 1605 1580 1590 1598 1543 1316 1058 1201 1285 1353 1598 1785 1853 1664 1857 1825 1341 1027 903 702 470 287 686 1944 1758 2013 2667 2073 1967 2252 987 1667 1818 891 177 51 24
97 37 27 13 3 0 0 0 0 173 935 1593 1766 1677 1693 1731 1570 1586 1325 1262 1436 1650 1900 2151 2219 2127 2534 2038 1671 1003 723 760 618 347 361 2139 1758 1791 1974 1827 2298 841 1303 1427 1615 1963 1509 461 366
3 11 2 6 0 0 0 0 0 27 442 951 1894 1810 1820 1828 1674 1631 1505 1500 1596 1879 2212 2424 2725 3542 2399 1988 1578 1125 677 548 542 355 852 894 1317 1784 2157 1879 2180 2108 1473 1873 2024 1843 691 610 671
0 0 6 2 0 0 0 0 1 11 84 352 854 1985 1847 1929 1819 1677 1743 1658 1818 2080 2271 2722 2907 2686 3039 2267 2269 1516 1205 339 362 396 1686 1165 1335 1698 1879 2712 2669 2058 1918 2278 2053 2507 2461 2107 835
0 0 0 8 0 0 0 10 32 30 36 172 205 528 1728 1930 2013 1803 1836 1866 1880 2171 2401 2820 3099 2803 3251 3452 2369 2012 1618 993 514 934 1226 1584 1881 2098 2337 2726 2622 2460 2318 1970 2664 2680 2259 2422 860
0 0 0 0 0 0 4 4 6 26 23 93 118 361 661 1795 2059 2052 1804 1902 2010 2087 2518 2732 3192 3277 3243 3496 2920 3533 1923 896 700 1355 1328 1605 2464 2080 2217 2789 3003 3416 2338 2879 2185 2000 2146 2762 2545
0 0 0 0 0 0 0 0 7 17 3 23 6 15 72 623 1732 2102 2048 1888 1893 2169 2296 2775 3550 3989 3890 3572 3548 2770 2923 1115 1272 1583 2865 2835 3282 2372 2118 3066 3227 3238 2724 3232 3266 2351 2390 3146 3220
0 0 0 0 0 0 0 0 46 12 10 11 6 1 379 548 1036 1796 2145 2051 1981 2101 2270 2501 3762 4209 4112 3611 2931 3512 3569 2872 1447 2069 1741 1625 1502 1971 3224 2644 3305 3716 3760 3508 2937 3291 2570 3266 2291
0 0 0 0 0 0 0 0 10 0 0 0 0 18 339 831 954 1499 1880 2056 2111 2147 2404 2418 3284 3927 3637 3423 3100 2629 2874 3433 3177 2853 1904 2569 1604 1403 2399 3810 3895 2768 3625 2858 3172 3310 3053 2616 2988
0 0 0 0 0 3 10 0 0 0 0 0 0 74 245 737 987 1186 1674 1905 2131 2210 2380 2558 2831 3629 3603 3530 3624 3496 3168 2292 2269 2527 2042 1955 1786 1678 3345 3665 3060 3654 3298 3493 3177 1888 2767 2435 1893
0 0 0 0 0 0 1 5 0 0 0 0 0 0 0 437 968 1104 1466 1820 2002 2157 2299 2580 2787 3224 3486 3515 3627 3648 3486 3404 2718 3475 3573 2430 3337 1878 3262 3024 2860 3307 3125 3380 2907 2005 2565 3096 3248
0 0 0 0 0 0 0 0 0 0 0 0 0 0 0 0 865 1079 1352 1637 1946 2023 2184 2452 2617 2881 3375 3355 3417 3300 3246 3659 3432 3976 3717 3759 3415 3585 3893 3667 3011 2851 3513 3213 3284 2942 2891 2930 2679
0 0 0 0 0 0 0 1 10 0 0 0 0 0 0 0 333 1161 1226 1384 1778 1775 1704 2202 2589 2702 3063 3151 3237 3383 3389 3196 3309 3026 3394 3710 2891 3840 4071 4048 3291 3384 3583 3005 3327 3315 2734 2468 2457
0 0 0 0 0 0 0 0 0 0 0 0 0 5 72 103 255 912 1214 915 1199 1173 1164 1655 2322 2534 2706 3031 3597 3120 3426 3788 3012 3099 2978 3098 3344 3158 3782 3818 3531 3539 3651 3422 3234 2947 2620 2756 2415
CIN
-126 -112 -81 -60 -2 -19 0 0 -1 0 0 0 0 0 -1 -7 -1 -3 -4 0 0 -13 -25 -4 0 0 0 0 0 0 0 -1 0 0 0 0 0 0 0 0 0 0 0 0 0 0 0 0 0
-71 -104 -78 -28 -44 0 0 -1 0 -1 0 0 0 -1 -2 0 0 -12 -2 0 0 -7 -11 -9 0 0 0 -3 0 0 0 0 0 0 0 0 0 0 0 0 0 -1 0 0 0 0 0 0 0
-79 -110 -12 -1 -5 -77 -1 0 0 0 -1 0 0 0 -1 0 0 -7 0 0 0 0 0 -2 0 0 0 -3 -3 -3 -1 -5 -1 0 0 0 0 0 -1 -1 0 0 0 0 0 0 0 0 0
-91 -35 -33 -7 -1 0 0 0 0 0 0 0 -2 -1 -23 -2 0 0 -4 0 0 0 -1 -10 0 0 0 0 0 0 0 -2 -2 0 0 0 0 0 -7 0 0 0 0 0 0 0 0 0 0
-26 -2 -56 -34 0 -1 -1 0 -2 0 0 0 -1 -5 -28 -24 -1 -30 -3 0 0 0 -5 -4 0 0 0 0 0 0 0 -1 -1 0 0 0 0 0 -1 0 0 0 0 0 0 0 0 0 0
-4 -37 -14 -7 -1 0 -1 -1 -3 -1 -1 0 0 -3 -36 -26 -27 -30 -1 0 0 0 0 0 0 0 0 0 0 0 -2 0 0 0 0 -1 0 0 0 0 -1 0 0 0 0 0 0 0 0
0 -42 -6 0 -1 0 0 -1 -13 -2 -1 -1 -2 -1 -18 -17 -34 -20 -3 -4 0 0 0 0 0 0 0 0 0 0 -2 0 0 0 0 0 0 0 0 -4 -1 0 0 0 -2 -1 -2 -1 0
-29 -10 -39 -70 -50 0 0 -1 -2 0 -1 -1 0 -9 -16 -22 -40 -25 -3 -3 0 -1 0 0 0 0 0 0 0 0 -2 0 0 0 0 0 0 0 -3 -2 -1 -7 0 0 0 -1 0 -1 0
-51 -18 -1 -1 -1 -23 0 -1 0 -1 0 0 0 -1 -20 -44 -41 -26 -11 -6 -4 -1 0 0 0 -1 0 -1 0 0 0 0 -1 0 -4 -6 0 0 -8 -1 -4 -1 0 0 0 -2 -7 -9 -10
-9 -1 -2 -1 0 -1 -2 0 0 0 0 -2 0 -14 -30 -44 -47 -32 -16 -9 -3 0 -1 0 0 0 0 0 -3 0 0 0 -1 -1 -3 -13 0 -1 -13 -1 0 0 0 0 -2 -13 -17 -18 -9
-37 -9 -42 -7 -2 0 -1 -1 0 -1 -1 0 -1 -34 -36 -33 -39 -15 -10 -1 0 0 0 0 0 0 0 -20 0 0 0 -1 -3 -4 -3 -3 -1 -2 0 0 0 0 -1 0 -3 -11 -1 -33 -72
-55 -82 -87 -67 -43 -1 0 0 -1 0 -1 -1 -5 -44 -40 -23 -40 -33 -15 -3 0 -2 -2 0 0 -1 0 0 -9 -33 0 -5 -3 0 0 -7 -2 -3 -21 -1 -3 -8 -4 -12 -16 -13 -8 -2 -2
0 0 -83 -20 -20 -5 -6 -1 -2 -4 -12 -6 -24 -50 -37 -24 -26 -14 -16 -9 -2 -1 -2 0 -1 0 0 0 -3 -4 0 -1 -7 0 0 -5 -16 -1 0 -2 -2 -2 -11 -2 -8 -1 -7 -21 -2
0 0 -36 0 -1 -1 -2 0 -4 -10 -12 -22 -32 -49 -46 -27 -16 -10 -19 -12 -4 -3 -2 -2 -2 -4 0 0 0 0 -1 0 -13 -3 -1 -2 -1 0 -2 0 -1 -7 -22 -25 -50 -1 -1 -12 -3
0 0 0 -1 0 -2 -1 -31 0 -17 -18 -30 -29 -47 -40 -29 -21 -27 -35 -29 -17 -18 -7 -6 -3 -6 -3 -6 -3 0 -1 0 -1 0 -1 0 -9 -1 0 -4 -3 -2 -13 -5 -15 0 -16 -45 -93
0 0 -7 -16 -52 0 0 -5 -4 -14 -18 -26 -31 -45 -43 -46 -41 -53 -52 -36 -28 -19 0 0 0 0 -1 -3 -7 -6 -4 -1 -15 0 0 0 -2 -1 0 -1 0 -1 0 -8 -2 -23 -21 -68 -43
0 -2 0 0 -2 0 0 0 -19 -11 -7 -25 -31 -44 -46 -46 -51 -70 -65 -34 -19 -7 -1 -1 0 0 0 0 -1 -9 -5 -9 -10 -23 0 -1 0 0 -2 -16 -12 -12 -2 -28 -30 -14 -88 -27 -2
-11 0 -1 0 -1 0 0 0 0 -3 -3 -8 -41 -35 -49 -59 -59 -61 -65 -49 -6 0 -1 -5 0 0 0 0 0 -9 -20 -17 -12 -25 -18 -2 0 0 0 -21 -10 0 -23 -49 -32 -3 -2 -16 -11
0 -64 0 0 0 0 0 0 0 -1 -2 -7 -9 -34 -47 -60 -62 -56 -64 -50 -13 -1 0 -1 0 0 0 0 0 -10 -40 -47 -30 -25 -2 -3 0 0 0 -1 -10 -1 -1 0 0 -10 -17 -18 -11
0 0 0 0 0 0 0 0 -2 0 -9 0 0 -10 -38 -47 -56 -71 -57 -43 -25 -2 -1 -1 -2 -9 0 0 0 0 -6 -58 -49 -27 -1 -2 -3 0 0 0 -2 -9 -6 -3 0 0 0 0 -3
0 0 0 0 0 0 0 -2 -1 -1 -26 0 0 0 -10 -38 -46 -60 -53 -40 -29 -5 -8 -6 -3 -18 0 0 0 0 0 -30 -46 -8 0 0 0 0 0 0 0 -1 0 -27 -6 0 0 0 -9
0 0 0 0 0 0 0 0 0 0 -1 -17 -1 -3 0 -9 -37 -32 -47 -35 -31 -14 -4 -4 -4 -3 -8 0 0 0 -10 -37 -24 0 0 0 0 0 0 0 0 0 -1 -13 -33 -4 -2 0 0
0 0 0 0 0 0 0 0 0 -1 0 0 -3 -3 -4 -5 -9 -36 -38 -42 -16 -3 0 -1 0 0 0 -5 -1 -2 0 -26 -1 0 0 -1 -1 0 0 0 0 0 0 0 0 -6 0 -2 0
0 0 0 0 0 0 0 0 -8 0 -1 -2 0 -1 -4 -3 -6 -32 -18 -19 -14 -1 0 0 0 0 0 -9 -24 0 0 0 -5 0 0 0 0 0 0 0 0 0 0 0 0 0 -1 0 -1
0 0 0 0 0 0 0 0 0 0 0 0 0 -14 -1 -10 -9 -16 -38 -33 -24 -7 -3 0 0 0 -4 -12 -27 -43 -22 0 -1 0 0 0 0 0 -11 -5 0 0 0 0 0 0 -1 -1 0
0 0 0 0 0 0 -1 0 0 0 0 0 0 -25 -6 -3 -7 -12 -27 -35 -41 -20 -10 -2 -1 -5 -9 -14 -19 -24 -21 -38 -36 -7 0 0 0 0 0 -6 0 0 0 0 0 0 -1 0 -1
0 0 0 0 0 0 0 -2 0 0 0 0 0 0 0 -8 -3 -13 -14 -25 -35 -37 -25 -15 -3 -16 -14 -17 -17 -16 -18 -14 -16 0 0 -3 0 -1 0 0 0 0 0 0 0 0 0 0 0
0 0 0 0 0 0 0 0 0 0 0 0 0 0 0 0 -13 -6 -11 -18 -20 -26 -23 -24 -21 -23 -30 -18 -27 -29 -34 -22 -18 0 0 0 0 0 0 0 0 0 0 0 0 0 0 0 -2
0 0 0 0 0 0 0 0 0 0 0 0 0 0 0 0 -27 -9 -10 -19 -19 -17 -20 -34 -31 -25 -33 -33 -28 -31 -26 -31 -29 -29 -12 -2 -4 0 0 0 0 0 0 0 0 0 0 0 0
0 0 0 0 0 0 0 0 0 0 0 0 0 -95 -54 -59 -44 -10 -10 -13 -27 -25 -26 -41 -48 -37 -35 -40 -27 -50 -36 -20 -41 -48 -40 -26 -14 -6 0 0 0 0 0 0 0 0 0 0 0
Wind_Speed
21 22 19 20 17 16 1 4 2 5 3 1 6 9 6 16 17 9 10 9 13 13 10 9 6 6 4 1 2 2 2 4 5 8 9 9 9 8 10 12 16 17 19 17 15 11 11 8 6
15 21 19 19 24 8 5 2 1 1 0 6 5 4 1 14 7 11 6 10 14 14 11 8 3 4 4 1 3 4 4 4 5 7 9 9 10 10 12 11 15 15 15 12 11 9 8 6 4
26 23 20 21 5 14 4 4 4 3 6 9 4 1 5 5 3 8 16 10 12 14 12 10 6 5 5 2 2 4 5 6 6 7 9 9 12 11 10 9 11 11 9 8 8 6 6 5 3
18 21 19 17 6 5 7 5 5 7 6 9 8 8 4 10 4 7 16 12 11 13 16 12 8 7 6 3 2 4 6 7 6 6 7 8 9 12 12 10 9 7 6 5 4 4 5 3 5
28 7 23 20 13 5 13 6 6 5 5 7 4 12 4 5 2 17 18 13 9 13 14 11 7 6 5 5 2 2 2 4 4 3 7 6 8 8 8 8 8 6 4 2 2 1 2 3 3
26 17 11 9 17 7 15 9 18 14 6 5 4 9 6 10 13 16 16 12 10 15 12 11 7 6 7 5 3 1 2 2 2 2 5 5 7 5 8 6 7 4 2 1 2 1 4 4 2
29 21 6 5 20 14 5 6 11 10 19 5 3 13 6 13 17 14 14 13 9 12 14 8 6 6 7 5 3 1 1 1 2 2 3 4 4 3 6 7 2 3 2 2 1 2 3 2 4
23 24 19 29 22 14 5 9 5 14 6 2 6 7 12 15 17 15 13 12 10 9 11 10 8 7 5 7 5 2 2 3 3 2 2 2 3 3 4 3 3 1 1 1 2 3 5 7 7
19 25 10 10 4 13 8 11 4 10 11 8 6 5 20 19 17 15 11 12 11 8 8 10 11 8 3 2 6 3 3 4 4 2 4 5 8 7 5 5 1 2 3 2 4 3 5 12 8
11 7 5 4 9 9 19 4 4 16 8 9 7 13 19 17 18 18 15 14 14 12 11 11 5 8 5 6 8 1 4 2 2 2 5 9 6 6 8 4 2 3 5 4 3 2 6 13 7
5 6 nan 4 6 2 6 6 6 7 16 11 14 18 22 20 17 17 15 14 14 13 10 14 9 8 7 14 7 2 3 6 3 11 9 9 3 3 5 1 3 4 7 6 6 4 9 2 1
nan nan nan nan nan 2 5 3 7 5 6 2 17 22 22 23 20 17 14 14 14 14 12 14 14 7 6 11 4 1 4 8 8 5 12 10 10 3 1 2 7 3 5 5 2 2 5 2 5
nan nan nan 11 nan 3 8 11 7 12 9 7 17 21 25 23 23 19 16 14 14 13 13 12 15 9 6 3 5 2 4 8 8 6 4 7 13 6 2 2 3 3 2 3 2 2 5 8 3
nan nan nan 7 5 11 12 22 22 15 12 18 18 20 23 24 23 20 19 17 14 12 13 11 13 11 7 4 2 4 0 6 11 8 8 4 8 6 6 2 3 5 5 3 5 4 5 9 14
nan nan nan 7 4 2 1 26 27 24 20 23 22 23 23 24 23 22 19 17 15 13 14 12 11 12 6 5 2 3 2 1 7 7 11 4 9 5 5 5 6 7 6 8 6 9 11 16 nan
nan nan nan nan nan nan nan 17 21 24 20 23 25 24 26 27 29 26 24 18 15 16 14 13 11 14 11 7 5 1 3 5 3 7 6 1 8 6 6 5 5 1 6 8 10 12 11 nan nan
nan nan nan nan nan nan nan nan 25 27 20 19 22 26 27 27 33 34 30 24 21 19 16 14 13 9 15 8 6 1 1 4 6 5 7 6 4 9 6 5 6 6 3 14 14 12 13 nan nan
nan nan nan nan nan nan nan nan nan 30 21 18 23 27 27 28 33 35 35 31 27 23 19 18 15 13 17 11 6 6 5 4 4 5 6 12 4 6 7 7 15 8 12 14 12 12 12 13 14
nan nan nan nan nan nan nan nan nan nan 27 14 21 22 29 27 32 36 38 36 33 27 22 22 20 17 8 9 7 6 5 5 5 5 7 7 4 6 8 6 14 10 9 10 9 12 9 8 12
nan nan nan nan nan nan nan nan nan nan nan 23 18 24 24 31 33 36 39 37 35 30 27 23 23 16 6 2 2 1 4 5 6 7 11 7 6 6 7 4 9 9 11 9 10 9 7 10 16
nan nan nan nan nan nan nan nan nan nan nan 15 11 17 32 25 32 37 38 35 33 36 31 25 22 16 5 2 3 3 4 6 6 5 7 8 4 5 2 5 3 4 4 8 8 11 11 9 13
nan nan nan nan nan nan nan nan nan nan nan nan 12 28 23 28 28 32 37 38 30 32 33 27 23 16 8 4 4 3 2 1 3 3 5 8 7 5 4 6 4 4 2 6 11 10 9 10 10
nan nan nan nan nan nan nan nan nan nan nan nan nan nan nan 21 33 33 36 38 28 29 31 26 24 20 13 10 5 8 3 3 5 7 6 7 13 7 6 5 5 3 3 4 2 9 13 11 11
nan nan nan nan nan nan nan nan nan nan nan nan nan nan 26 15 26 33 32 32 24 26 27 25 23 20 19 14 10 9 12 3 7 8 8 6 5 9 7 5 6 4 4 4 4 9 9 12 12
nan nan nan nan nan nan nan nan nan nan nan nan nan nan 21 13 19 25 35 32 23 24 27 23 21 21 20 19 15 13 9 8 1 3 4 5 6 5 10 12 9 7 9 6 6 11 8 7 12
nan nan nan nan nan nan nan nan nan nan nan nan nan nan 17 10 12 23 36 29 19 18 24 23 21 21 22 20 18 13 11 6 6 6 2 3 1 2 7 14 10 9 6 7 9 9 10 11 15
nan nan nan nan nan nan nan nan nan nan nan nan nan nan nan 14 17 24 31 31 18 17 20 24 19 22 23 24 20 15 12 9 7 4 7 2 1 0 3 6 7 6 4 5 7 5 11 12 15
nan nan nan nan nan nan nan nan nan nan nan nan nan nan nan nan 12 21 29 24 17 18 19 20 18 21 22 23 20 16 15 13 10 6 6 3 3 4 3 7 6 5 5 6 5 6 8 8 14
nan nan nan nan nan nan nan nan nan nan nan nan nan nan nan nan 13 17 23 19 18 17 17 18 18 19 21 21 18 17 15 16 14 13 10 7 6 4 8 6 8 6 3 6 7 5 5 8 11
nan nan nan nan nan nan nan nan nan nan nan nan nan nan nan 26 18 7 16 17 20 20 18 16 18 18 18 18 16 17 16 12 14 12 12 11 12 11 9 7 8 5 4 6 10 11 10 13 10
Wind_Direction
50 67 80 79 69 72 171 71 297 32 94 70 133 149 163 178 202 160 309 357 330 325 341 7 13 342 347 44 106 132 113 102 103 104 99 97 79 85 98 68 65 79 97 117 135 142 135 134 140
58 74 74 77 54 300 64 265 316 136 61 335 56 98 266 221 201 274 308 322 326 325 350 341 356 335 329 335 88 78 79 94 97 101 105 100 71 136 90 90 78 81 102 118 119 132 116 146 158
79 74 69 89 53 130 16 293 335 334 52 21 60 233 179 187 282 317 287 322 318 324 337 297 329 316 329 352 67 79 74 80 91 106 103 96 87 105 100 94 95 97 109 109 114 131 127 158 151
77 56 85 70 0 218 303 283 308 349 3 46 100 281 292 152 350 321 326 323 307 341 297 310 320 317 313 339 35 74 78 78 87 107 107 104 107 95 102 78 84 96 122 116 125 124 154 181 181
71 52 79 72 305 317 311 344 19 324 2 29 92 254 244 97 344 325 340 336 323 292 288 312 315 315 309 317 336 90 126 143 113 107 99 117 106 103 107 72 75 89 112 88 104 253 232 214 198
83 36 30 351 316 312 328 4 17 348 308 297 2 264 262 347 327 341 343 339 356 280 307 300 300 322 315 311 295 241 205 169 153 128 116 120 98 111 89 62 54 64 50 70 101 321 204 217 236
88 60 18 8 324 315 314 42 331 323 11 312 234 264 310 332 329 340 341 335 346 305 296 324 314 314 333 319 308 233 225 199 114 87 129 114 120 107 93 101 101 56 90 360 234 256 218 187 248
73 98 165 280 89 306 33 252 338 160 262 346 55 307 339 328 339 340 339 336 326 325 306 311 316 329 337 325 305 228 191 208 161 189 142 133 150 115 111 85 94 23 334 12 284 271 239 254 245
70 61 254 214 302 2 354 307 308 44 1 69 58 29 323 336 345 341 341 339 325 360 319 318 314 301 317 2 296 283 203 202 214 275 138 88 130 99 42 162 296 323 301 330 295 295 290 319 233
88 201 195 128 130 102 307 149 355 17 13 357 22 314 334 343 354 353 349 356 345 352 346 302 324 316 359 11 301 20 269 171 112 169 131 120 111 141 170 271 337 346 319 327 294 359 16 34 182
112 166 nan 197 262 137 226 17 3 57 345 338 352 355 355 357 10 3 1 4 357 349 351 321 333 343 324 256 276 235 202 215 220 134 139 158 172 100 87 176 54 18 22 27 17 66 82 182 106
nan nan nan nan nan 137 265 347 351 317 272 88 342 2 5 6 14 8 17 15 360 350 354 336 327 354 317 269 258 172 225 206 178 175 135 175 133 105 84 240 88 163 18 5 160 186 169 229 261
nan nan nan 228 nan 298 344 315 329 322 322 343 333 1 18 19 15 14 8 17 15 354 352 355 323 342 356 260 293 24 216 201 207 225 184 168 159 135 109 338 74 57 39 323 315 95 267 207 246
nan nan nan 236 264 325 34 337 9 324 336 318 338 355 14 19 16 13 4 3 6 351 348 352 327 330 18 8 175 177 241 200 218 220 252 182 156 182 155 222 33 339 52 103 330 290 268 233 235
nan nan nan 254 260 230 151 169 331 328 328 332 352 360 8 19 10 8 5 359 358 336 331 338 334 334 358 347 349 145 246 219 172 234 239 218 228 169 189 213 187 165 265 359 271 280 271 296 nan
nan nan nan nan nan nan nan 334 318 336 332 336 352 6 11 13 13 11 7 355 352 337 328 331 333 334 332 316 303 101 180 173 204 168 249 294 230 241 225 244 261 281 298 287 290 298 343 nan nan
nan nan nan nan nan nan nan nan 332 349 342 334 357 1 8 10 13 10 14 6 355 348 336 336 329 330 314 298 274 189 212 180 217 202 189 272 202 270 252 218 256 273 304 284 295 336 337 nan nan
nan nan nan nan nan nan nan nan nan 331 360 3 7 3 5 7 9 6 11 12 5 359 346 344 334 317 299 253 227 234 210 232 182 221 218 271 241 267 256 244 250 270 263 270 290 319 352 322 331
nan nan nan nan nan nan nan nan nan nan 327 9 2 9 356 6 5 6 6 6 5 359 353 353 347 336 272 195 230 228 214 254 256 228 247 253 236 273 273 231 271 278 250 286 309 305 333 305 285
nan nan nan nan nan nan nan nan nan nan nan 335 351 347 1 356 1 4 4 4 10 359 359 0 356 9 46 161 208 265 217 211 239 239 262 265 282 274 281 271 276 289 262 291 308 312 300 295 310
nan nan nan nan nan nan nan nan nan nan nan 316 328 329 341 358 356 0 4 2 8 4 2 1 1 2 26 15 235 226 230 197 221 226 271 292 317 316 333 308 309 240 216 296 325 319 322 303 303
nan nan nan nan nan nan nan nan nan nan nan nan 350 318 323 336 349 358 2 4 359 5 1 3 8 2 12 24 309 330 335 273 177 221 260 282 316 345 350 334 326 320 260 239 305 333 323 314 309
nan nan nan nan nan nan nan nan nan nan nan nan nan nan nan 311 329 344 355 1 360 357 360 1 7 13 349 332 32 328 328 278 234 221 251 281 294 319 336 324 328 345 347 323 274 290 317 319 318
nan nan nan nan nan nan nan nan nan nan nan nan nan nan 266 271 311 326 344 353 356 352 359 355 357 9 17 359 11 325 317 265 260 264 264 268 268 291 317 332 313 315 290 327 301 325 332 331 314
nan nan nan nan nan nan nan nan nan nan nan nan nan nan 278 268 310 337 348 343 346 350 353 351 355 2 9 5 4 14 9 333 328 247 287 253 269 275 302 315 309 317 315 313 331 307 304 309 304
nan nan nan nan nan nan nan nan nan nan nan nan nan nan 275 288 309 333 342 339 341 348 349 350 351 360 4 5 359 354 350 334 333 342 80 339 146 273 272 299 295 307 310 307 303 302 292 283 288
nan nan nan nan nan nan nan nan nan nan nan nan nan nan nan 270 298 326 337 336 330 342 351 353 351 358 1 1 357 352 342 348 342 349 321 58 160 235 270 282 276 293 301 324 316 312 299 297 311
nan nan nan nan nan nan nan nan nan nan nan nan nan nan nan nan 286 321 327 332 326 341 344 347 357 357 357 2 7 17 15 7 16 356 26 26 3 332 217 298 299 302 319 327 323 4 348 339 337
nan nan nan nan nan nan nan nan nan nan nan nan nan nan nan nan 232 309 321 329 331 338 340 347 350 356 351 2 6 16 19 23 28 36 40 41 44 347 321 309 318 337 311 27 21 302 332 9 3
nan nan nan nan nan nan nan nan nan nan nan nan nan nan nan 231 239 283 324 332 338 340 341 337 344 348 350 355 1 4 9 8 19 32 46 52 42 39 27 12 44 56 28 24 17 18 8 354 355